Tracking 30923 objects as of 1-Jul-2025
HD Live streaming from Space Station
objects crossing your sky now

FENGYUN 1C DEB

Track FENGYUN 1C DEB now!
10-day predictions


NORAD ID: 30365
Int'l Code: 1999-025ACC
Perigee: 715.9 km
Apogee: 955.9 km
Inclination: 98.6 °
Period: 101.5 minutes
Semi major axis: 7206 km
RCS: 0.026 m2 (small)
Launch date: May 10, 1999
Source: People's Republic of China (PRC)
Launch site: Taiyaun Space Center, China (TSC)

Note: This is SATELLITE DEBRIS
Your satellite tracking list
SJ-11-06
Track 1 satellite(s)




NASA's NSSDC Master Catalog

Two Line Element Set (TLE):
1 30365U 99025ACC 25181.58565058  .00000233  00000-0  11562-3 0  9997
2 30365  98.6089 180.4604 0166509 227.9106 253.6344 14.18981622952708
Source of the keplerian elements: AFSPC